When you browse on this site, cookies collect data to enhance your experience and personalize the content and advertising you see.
Visit our Privacy Policy to learn more. By continuing to use the site, you agree to this use of cookies and data.
  • In Lithuania
  • List of Countries
  • For 7 days
  • Water Temperature
  • Satellite Maps
  • Weather Map
  • Weather Widgets
  • user-avatar
    Login

    Hourly Weather Pakchongo

    Today, 16 December, Sunday

    Time Temperature Precipitation Wind Pressure Humidity
    00:00 +24°C° 0 mm 3 mps 731 mmHg 63%
    01:00 +24°C° 0 mm 3 mps 731 mmHg 61%
    02:00 +24°C° 0 mm 3 mps 731 mmHg 62%
    03:00 +22°C° 0 mm 3 mps 731 mmHg 63%
    04:00 +22°C° 0 mm 3 mps 731 mmHg 65%
    05:00 +22°C° 0 mm 3 mps 731 mmHg 67%
    06:00 +21°C° 0 mm 3 mps 731 mmHg 69%
    07:00 +21°C° 0 mm 3 mps 732 mmHg 71%
    08:00 +22°C° 0 mm 4 mps 732 mmHg 68%
    09:00 +23°C° 0 mm 5 mps 732 mmHg 66%
    10:00 +26°C° 0 mm 6 mps 733 mmHg 63%
    11:00 +27°C° 0 mm 6 mps 732 mmHg 60%
    12:00 +28°C° 0 mm 6 mps 732 mmHg 57%
    13:00 +29°C° 0 mm 6 mps 731 mmHg 54%
    14:00 +30°C° 0 mm 5 mps 730 mmHg 54%
    15:00 +30°C° 0 mm 5 mps 730 mmHg 53%
    16:00 +30°C° 0 mm 5 mps 729 mmHg 53%
    17:00 +29°C° 0 mm 4 mps 729 mmHg 57%
    18:00 +27°C° 0 mm 3 mps 729 mmHg 61%
    19:00 +26°C° 0 mm 2 mps 730 mmHg 65%
    20:00 +26°C° 0 mm 3 mps 730 mmHg 65%
    21:00 +25°C° 0 mm 3 mps 730 mmHg 64%
    22:00 +25°C° 0 mm 3 mps 731 mmHg 64%
    23:00 +25°C° 0 mm 3 mps 731 mmHg 66%

    Tomorrow, 17 December, Monday

    Time Temperature Precipitation Wind Pressure Humidity
    00:00 +24°C° 0 mm 3 mps 731 mmHg 67%
    01:00 +23°C° 0 mm 4 mps 731 mmHg 68%
    02:00 +22°C° 0 mm 4 mps 730 mmHg 70%
    03:00 +22°C° 0 mm 4 mps 730 mmHg 72%
    04:00 +21°C° 0 mm 4 mps 730 mmHg 74%
    05:00 +21°C° 0 mm 4 mps 730 mmHg 75%
    06:00 +20°C° 0 mm 4 mps 731 mmHg 76%
    07:00 +20°C° 0 mm 4 mps 731 mmHg 77%
    08:00 +22°C° 0 mm 4 mps 732 mmHg 72%
    09:00 +23°C° 0 mm 5 mps 732 mmHg 68%
    10:00 +26°C° 0 mm 6 mps 733 mmHg 63%
    11:00 +27°C° 0 mm 5 mps 732 mmHg 60%
    12:00 +29°C° 0 mm 5 mps 732 mmHg 56%
    13:00 +30°C° 0 mm 5 mps 731 mmHg 52%
    14:00 +30°C° 0 mm 5 mps 730 mmHg 52%
    15:00 +30°C° 0 mm 4 mps 730 mmHg 52%
    16:00 +30°C° 0 mm 4 mps 729 mmHg 51%
    17:00 +29°C° 0 mm 3 mps 729 mmHg 56%
    18:00 +27°C° 0 mm 3 mps 729 mmHg 60%
    19:00 +25°C° 0 mm 2 mps 730 mmHg 64%
    20:00 +25°C° 0 mm 2 mps 730 mmHg 65%
    21:00 +24°C° 0 mm 2 mps 730 mmHg 66%
    22:00 +24°C° 0 mm 2 mps 731 mmHg 67%
    23:00 +24°C° 0 mm 2 mps 731 mmHg 69%

    Day after tomorrow, 18 December, Tuesday

    Time Temperature Precipitation Wind Pressure Humidity
    00:00 +22°C° 0 mm 3 mps 730 mmHg 71%
    01:00 +22°C° 0 mm 3 mps 730 mmHg 72%
    02:00 +21°C° 0 mm 3 mps 730 mmHg 74%
    03:00 +21°C° 0 mm 3 mps 730 mmHg 75%
    04:00 +20°C° 0 mm 3 mps 729 mmHg 77%
    05:00 +20°C° 0 mm 3 mps 730 mmHg 78%
    06:00 +20°C° 0 mm 3 mps 730 mmHg 79%
    07:00 +20°C° 0 mm 3 mps 731 mmHg 80%
    08:00 +22°C° 0 mm 4 mps 731 mmHg 75%
    09:00 +23°C° 0 mm 4 mps 732 mmHg 70%
    10:00 +26°C° 0 mm 5 mps 732 mmHg 65%
    11:00 +27°C° 0 mm 4 mps 731 mmHg 62%
    12:00 +29°C° 0 mm 4 mps 731 mmHg 59%
    13:00 +30°C° 0 mm 4 mps 730 mmHg 56%
    14:00 +30°C° 0 mm 3 mps 729 mmHg 55%
    15:00 +30°C° 0 mm 3 mps 728 mmHg 55%
    16:00 +31°C° 0 mm 3 mps 728 mmHg 55%
    17:00 +29°C° 0 mm 2 mps 728 mmHg 60%
    18:00 +27°C° 0 mm 2 mps 728 mmHg 65%
    19:00 +26°C° 0 mm 1 mps 729 mmHg 69%
    20:00 +26°C° 0 mm 1 mps 729 mmHg 70%
    21:00 +25°C° 0 mm 1 mps 730 mmHg 70%
    22:00 +25°C° 0 mm 1 mps 730 mmHg 71%
    23:00 +25°C° 0 mm 1 mps 730 mmHg 71%

    19 December, Wednesday

    Time Temperature Precipitation Wind Pressure Humidity
    00:00 +24°C° 0 mm 2 mps 730 mmHg 72%
    01:00 +24°C° 0 mm 2 mps 730 mmHg 72%
    02:00 +23°C° 0 mm 2 mps 729 mmHg 73%
    03:00 +23°C° 0 mm 2 mps 729 mmHg 74%
    04:00 +23°C° 0 mm 2 mps 729 mmHg 74%
    05:00 +21°C° 0 mm 2 mps 729 mmHg 76%
    06:00 +21°C° 0 mm 2 mps 729 mmHg 78%
    07:00 +21°C° 0 mm 2 mps 730 mmHg 80%
    08:00 +24°C° 0 mm 2 mps 730 mmHg 73%
    09:00 +26°C° 0 mm 2 mps 731 mmHg 66%
    10:00 +28°C° 0 mm 3 mps 731 mmHg 60%
    11:00 +30°C° 0 mm 3 mps 731 mmHg 56%
    12:00 +31°C° 0 mm 2 mps 730 mmHg 52%
    13:00 +32°C° 0 mm 2 mps 729 mmHg 49%
    14:00 +32°C° 0 mm 2 mps 729 mmHg 49%
    15:00 +32°C° 0 mm 2 mps 728 mmHg 50%
    16:00 +32°C° 0 mm 1 mps 727 mmHg 51%
    17:00 +31°C° 0 mm 1 mps 728 mmHg 54%
    18:00 +29°C° 0 mm 1 mps 728 mmHg 58%
    19:00 +28°C° 0 mm 1 mps 729 mmHg 62%
    20:00 +27°C° 0 mm 1 mps 729 mmHg 64%
    21:00 +27°C° 0 mm 1 mps 729 mmHg 66%
    22:00 +26°C° 0 mm 1 mps 730 mmHg 67%
    23:00 +26°C° 0 mm 1 mps 729 mmHg 68%

    20 December, Thursday

    Time Temperature Precipitation Wind Pressure Humidity
    00:00 +25°C° 0 mm 1 mps 729 mmHg 69%
    01:00 +25°C° 0 mm 1 mps 729 mmHg 70%
    02:00 +25°C° 0 mm 1 mps 728 mmHg 71%
    03:00 +24°C° 0 mm 1 mps 728 mmHg 71%
    04:00 +24°C° 0 mm 1 mps 728 mmHg 72%
    05:00 +24°C° 0 mm 1 mps 728 mmHg 72%
    06:00 +24°C° 0 mm 1 mps 729 mmHg 73%
    07:00 +24°C° 0 mm 1 mps 729 mmHg 73%
    08:00 +26°C° 0 mm 1 mps 729 mmHg 67%
    09:00 +29°C° 0 mm 1 mps 730 mmHg 60%
    10:00 +31°C° 0 mm 1 mps 731 mmHg 53%
    11:00 +32°C° 0 mm 1 mps 730 mmHg 50%
    12:00 +33°C° 0 mm 1 mps 729 mmHg 48%
    13:00 +32°C° 0 mm 0 mps 728 mmHg 45%
    14:00 +34°C° 0 mm 1 mps 727 mmHg 46%
    15:00 +33°C° 0 mm 1 mps 727 mmHg 47%
    16:00 +33°C° 0 mm 1 mps 726 mmHg 48%
    17:00 +31°C° 0 mm 1 mps 726 mmHg 53%
    18:00 +30°C° 0 mm 1 mps 727 mmHg 57%
    19:00 +28°C° 0 mm 1 mps 727 mmHg 61%
    20:00 +28°C° 0 mm 1 mps 727 mmHg 62%
    21:00 +27°C° 0 mm 1 mps 728 mmHg 64%
    22:00 +27°C° 0 mm 1 mps 728 mmHg 65%
    23:00 +27°C° 0 mm 1 mps 728 mmHg 66%

    21 December, Friday

    Time Temperature Precipitation Wind Pressure Humidity
    00:00 +24°C° 0 mm 0 mps 727 mmHg 67%
    01:00 +24°C° 0 mm 0 mps 727 mmHg 68%
    02:00 +24°C° 0 mm 0 mps 727 mmHg 70%
    03:00 +24°C° 0 mm 0 mps 727 mmHg 71%
    04:00 +23°C° 0 mm 0 mps 727 mmHg 72%
    05:00 +25°C° 0 mm 1 mps 727 mmHg 73%
    06:00 +25°C° 0 mm 1 mps 727 mmHg 74%
    07:00 +25°C° 0 mm 1 mps 728 mmHg 75%
    08:00 +27°C° 0 mm 1 mps 728 mmHg 68%
    09:00 +29°C° 0 mm 1 mps 729 mmHg 61%
    10:00 +32°C° 0 mm 1 mps 729 mmHg 53%
    11:00 +32°C° 0 mm 2 mps 728 mmHg 51%
    12:00 +34°C° 0 mm 2 mps 728 mmHg 48%
    13:00 +35°C° 0 mm 2 mps 727 mmHg 45%
    14:00 +35°C° 0 mm 2 mps 726 mmHg 46%
    15:00 +35°C° 0 mm 2 mps 726 mmHg 47%
    16:00 +35°C° 0 mm 2 mps 725 mmHg 48%
    17:00 +32°C° 0 mm 1 mps 726 mmHg 53%
    18:00 +30°C° 0 mm 1 mps 726 mmHg 58%
    19:00 +29°C° 0 mm 1 mps 726 mmHg 63%
    20:00 +28°C° 0 mm 1 mps 726 mmHg 64%
    21:00 +28°C° 0 mm 1 mps 727 mmHg 65%
    22:00 +28°C° 0 mm 1 mps 727 mmHg 67%
    23:00 +25°C° 0 mm 0 mps 727 mmHg 67%
    Show more